Time,TemperatureF,DewpointF,PressureIn,WindDirection,WindDirectionDegrees,WindSpeedMPH,WindSpeedGustMPH,Humidity,HourlyPrecipIn,Conditions,Clouds,dailyrainin,SolarRadiationWatts/m^2,SoftwareType,DateUTC
2013-02-26 00:01:00,16.0,3.0,-100.00,West,264,11.0,25.0,57,0.00,,,0.00,0.000000,,2013-02-26 07:01:00,
2013-02-26 00:11:00,16.0,3.0,-100.00,West,264,11.0,25.0,57,0.00,,,0.00,0.000000,,2013-02-26 07:11:00,
2013-02-26 00:22:00,16.0,3.0,-100.00,West,264,11.0,25.0,57,0.00,,,0.00,0.000000,,2013-02-26 07:22:00,
2013-02-26 00:31:00,16.0,3.0,-100.00,West,264,11.0,25.0,57,0.00,,,0.00,0.000000,,2013-02-26 07:31:00,
2013-02-26 00:40:00,15.0,5.0,-100.00,West,273,10.0,20.0,63,0.00,,,0.00,0.000000,,2013-02-26 07:40:00,
2013-02-26 01:01:00,15.0,5.0,-100.00,West,273,10.0,20.0,63,0.00,,,0.00,0.000000,,2013-02-26 08:01:00,
2013-02-26 01:11:00,15.0,5.0,-100.00,West,273,10.0,20.0,63,0.00,,,0.00,0.000000,,2013-02-26 08:11:00,
2013-02-26 01:21:00,15.0,5.0,-100.00,West,273,10.0,20.0,63,0.00,,,0.00,0.000000,,2013-02-26 08:21:00,
2013-02-26 01:31:00,15.0,5.0,-100.00,West,273,10.0,20.0,63,0.00,,,0.00,0.000000,,2013-02-26 08:31:00,
2013-02-26 01:40:00,13.0,9.0,-100.00,WNW,287,13.0,24.0,85,0.00,,,0.00,0.000000,,2013-02-26 08:40:00,
2013-02-26 02:01:00,13.0,9.0,-100.00,WNW,287,13.0,24.0,85,0.00,,,0.00,0.000000,,2013-02-26 09:01:00,
2013-02-26 02:11:00,13.0,9.0,-100.00,WNW,287,13.0,24.0,85,0.00,,,0.00,0.000000,,2013-02-26 09:11:00,
2013-02-26 02:21:00,13.0,9.0,-100.00,WNW,287,13.0,24.0,85,0.00,,,0.00,0.000000,,2013-02-26 09:21:00,
2013-02-26 02:31:00,13.0,9.0,-100.00,WNW,287,13.0,24.0,85,0.00,,,0.00,0.000000,,2013-02-26 09:31:00,
2013-02-26 02:40:00,14.0,5.0,-100.00,West,275,9.0,26.0,68,0.00,,,0.00,0.000000,,2013-02-26 09:40:00,
2013-02-26 03:01:00,14.0,5.0,-100.00,West,275,9.0,26.0,68,0.00,,,0.00,0.000000,,2013-02-26 10:01:00,
2013-02-26 03:11:00,14.0,5.0,-100.00,West,275,9.0,26.0,68,0.00,,,0.00,0.000000,,2013-02-26 10:11:00,
2013-02-26 03:21:00,14.0,5.0,-100.00,West,275,9.0,26.0,68,0.00,,,0.00,0.000000,,2013-02-26 10:21:00,
2013-02-26 03:31:00,14.0,5.0,-100.00,West,275,9.0,26.0,68,0.00,,,0.00,0.000000,,2013-02-26 10:31:00,
2013-02-26 03:40:00,14.0,5.0,-100.00,WNW,283,10.0,21.0,66,0.00,,,0.00,0.000000,,2013-02-26 10:40:00,
2013-02-26 04:01:00,14.0,5.0,-100.00,WNW,283,10.0,21.0,66,0.00,,,0.00,0.000000,,2013-02-26 11:01:00,
2013-02-26 04:11:00,14.0,5.0,-100.00,WNW,283,10.0,21.0,66,0.00,,,0.00,0.000000,,2013-02-26 11:11:00,
2013-02-26 04:21:00,14.0,5.0,-100.00,WNW,283,10.0,21.0,66,0.00,,,0.00,0.000000,,2013-02-26 11:21:00,
2013-02-26 04:31:00,14.0,5.0,-100.00,WNW,283,10.0,21.0,66,0.00,,,0.00,0.000000,,2013-02-26 11:31:00,
2013-02-26 04:40:00,14.0,3.0,-100.00,West,272,9.0,20.0,62,0.00,,,0.00,0.000000,,2013-02-26 11:40:00,
2013-02-26 05:01:00,14.0,3.0,-100.00,West,272,9.0,20.0,62,0.00,,,0.00,0.000000,,2013-02-26 12:01:00,
2013-02-26 05:11:00,14.0,3.0,-100.00,West,272,9.0,20.0,62,0.00,,,0.00,0.000000,,2013-02-26 12:11:00,
2013-02-26 05:22:00,14.0,3.0,-100.00,West,272,9.0,20.0,62,0.00,,,0.00,0.000000,,2013-02-26 12:22:00,
2013-02-26 05:32:00,14.0,3.0,-100.00,West,272,9.0,20.0,62,0.00,,,0.00,0.000000,,2013-02-26 12:32:00,
2013-02-26 05:40:00,13.0,3.0,-100.00,WNW,288,10.0,22.0,65,0.00,,,0.00,0.000000,,2013-02-26 12:40:00,
2013-02-26 06:01:00,13.0,3.0,-100.00,WNW,288,10.0,22.0,65,0.00,,,0.00,0.000000,,2013-02-26 13:01:00,
2013-02-26 06:11:00,13.0,3.0,-100.00,WNW,288,10.0,22.0,65,0.00,,,0.00,0.000000,,2013-02-26 13:11:00,
2013-02-26 06:21:00,13.0,3.0,-100.00,WNW,288,10.0,22.0,65,0.00,,,0.00,0.000000,,2013-02-26 13:21:00,
2013-02-26 06:31:00,13.0,3.0,-100.00,WNW,288,10.0,22.0,65,0.00,,,0.00,0.000000,,2013-02-26 13:31:00,
2013-02-26 06:40:00,13.0,4.0,-100.00,WNW,292,10.0,22.0,66,0.00,,,0.00,0.000000,,2013-02-26 13:40:00,
2013-02-26 07:01:00,13.0,4.0,-100.00,WNW,292,10.0,22.0,66,0.00,,,0.00,0.000000,,2013-02-26 14:01:00,
2013-02-26 07:11:00,13.0,4.0,-100.00,WNW,292,10.0,22.0,66,0.00,,,0.00,0.000000,,2013-02-26 14:11:00,
2013-02-26 07:21:00,13.0,4.0,-100.00,WNW,292,10.0,22.0,66,0.00,,,0.00,0.000000,,2013-02-26 14:21:00,
2013-02-26 07:31:00,13.0,4.0,-100.00,WNW,292,10.0,22.0,66,0.00,,,0.00,0.000000,,2013-02-26 14:31:00,
2013-02-26 07:40:00,14.0,3.0,-100.00,WNW,287,8.0,17.0,61,0.00,,,0.00,29.000000,,2013-02-26 14:40:00,
2013-02-26 08:02:00,14.0,3.0,-100.00,WNW,287,8.0,17.0,61,0.00,,,0.00,29.000000,,2013-02-26 15:02:00,
2013-02-26 08:11:00,14.0,3.0,-100.00,WNW,287,8.0,17.0,61,0.00,,,0.00,29.000000,,2013-02-26 15:11:00,
2013-02-26 08:21:00,14.0,3.0,-100.00,WNW,287,8.0,17.0,61,0.00,,,0.00,29.000000,,2013-02-26 15:21:00,
2013-02-26 08:32:00,14.0,3.0,-100.00,WNW,287,8.0,17.0,61,0.00,,,0.00,29.000000,,2013-02-26 15:32:00,
2013-02-26 08:40:00,20.0,4.0,-100.00,WNW,284,4.0,13.0,49,0.00,,,0.00,169.000000,,2013-02-26 15:40:00,
2013-02-26 09:01:00,20.0,4.0,-100.00,WNW,284,4.0,13.0,49,0.00,,,0.00,169.000000,,2013-02-26 16:01:00,
2013-02-26 09:11:00,20.0,4.0,-100.00,WNW,284,4.0,13.0,49,0.00,,,0.00,169.000000,,2013-02-26 16:11:00,
2013-02-26 09:22:00,20.0,4.0,-100.00,WNW,284,4.0,13.0,49,0.00,,,0.00,169.000000,,2013-02-26 16:22:00,
2013-02-26 09:31:00,20.0,4.0,-100.00,WNW,284,4.0,13.0,49,0.00,,,0.00,169.000000,,2013-02-26 16:31:00,
2013-02-26 09:40:00,28.0,5.0,-100.00,NW,317,4.0,12.0,36,0.00,,,0.00,321.000000,,2013-02-26 16:40:00,
2013-02-26 10:01:00,28.0,5.0,-100.00,NW,317,4.0,12.0,36,0.00,,,0.00,321.000000,,2013-02-26 17:01:00,
2013-02-26 11:01:00,29.0,5.0,-100.00,NNW,327,2.0,9.0,35,0.00,,,0.00,142.000000,,2013-02-26 18:01:00,
2013-02-26 12:01:00,34.0,6.0,-100.00,North,358,2.0,8.0,30,0.01,,,0.01,694.000000,,2013-02-26 19:01:00,
2013-02-26 12:40:00,25.0,4.0,-100.00,North,9,3.0,9.0,39,0.00,,,0.01,313.000000,,2013-02-26 19:40:00,
2013-02-26 13:01:00,25.0,4.0,-100.00,North,9,3.0,9.0,39,0.00,,,0.01,313.000000,,2013-02-26 20:01:00,
2013-02-26 13:11:00,25.0,4.0,-100.00,North,9,3.0,9.0,39,0.00,,,0.01,313.000000,,2013-02-26 20:11:00,
2013-02-26 13:21:00,25.0,4.0,-100.00,North,9,3.0,9.0,39,0.00,,,0.01,313.000000,,2013-02-26 20:21:00,
2013-02-26 13:31:00,25.0,4.0,-100.00,North,9,3.0,9.0,39,0.00,,,0.01,313.000000,,2013-02-26 20:31:00,
2013-02-26 14:40:00,25.0,5.0,-100.00,North,10,3.0,7.0,42,-99.99,,,0.01,503.000000,,2013-02-26 21:40:00,
2013-02-26 15:01:00,25.0,5.0,-100.00,North,10,3.0,7.0,42,-99.99,,,0.01,503.000000,,2013-02-26 22:01:00,
2013-02-26 15:11:00,25.0,5.0,-100.00,North,10,3.0,7.0,42,-99.99,,,0.01,503.000000,,2013-02-26 22:11:00,
2013-02-26 15:21:00,25.0,5.0,-100.00,North,10,3.0,7.0,42,-99.99,,,0.01,503.000000,,2013-02-26 22:21:00,
2013-02-26 15:31:00,25.0,5.0,-100.00,North,10,3.0,7.0,42,-99.99,,,0.01,503.000000,,2013-02-26 22:31:00,
2013-02-26 15:40:00,27.0,2.0,-100.00,North,349,3.0,7.0,34,0.00,,,0.01,226.000000,,2013-02-26 22:40:00,
2013-02-26 16:01:00,27.0,2.0,-100.00,North,349,3.0,7.0,34,0.00,,,0.01,226.000000,,2013-02-26 23:01:00,
2013-02-26 16:11:00,27.0,2.0,-100.00,North,349,3.0,7.0,34,0.00,,,0.01,226.000000,,2013-02-26 23:11:00,
2013-02-26 16:21:00,27.0,2.0,-100.00,North,349,3.0,7.0,34,0.00,,,0.01,226.000000,,2013-02-26 23:21:00,
2013-02-26 16:31:00,27.0,2.0,-100.00,North,349,3.0,7.0,34,0.00,,,0.01,226.000000,,2013-02-26 23:31:00,
2013-02-26 17:01:00,32.0,3.0,-100.00,NNW,337,3.0,9.0,28,0.00,,,0.01,498.000000,,2013-02-27 00:01:00,
2013-02-26 17:40:00,22.0,5.0,-100.00,North,6,1.0,8.0,47,-99.99,,,0.01,209.000000,,2013-02-27 00:40:00,
2013-02-26 18:01:00,22.0,5.0,-100.00,North,6,1.0,8.0,47,-99.99,,,0.01,209.000000,,2013-02-27 01:01:00,
2013-02-26 18:11:00,22.0,5.0,-100.00,North,6,1.0,8.0,47,-99.99,,,0.01,209.000000,,2013-02-27 01:11:00,
2013-02-26 18:21:00,22.0,5.0,-100.00,North,6,1.0,8.0,47,-99.99,,,0.01,209.000000,,2013-02-27 01:21:00,
2013-02-26 18:31:00,22.0,5.0,-100.00,North,6,1.0,8.0,47,-99.99,,,0.01,209.000000,,2013-02-27 01:31:00,
2013-02-26 18:40:00,13.0,9.0,-100.00,ENE,70,1.0,6.0,82,0.00,,,0.01,13.000000,,2013-02-27 01:40:00,
2013-02-26 19:01:00,13.0,9.0,-100.00,ENE,70,1.0,6.0,82,0.00,,,0.01,13.000000,,2013-02-27 02:01:00,
2013-02-26 19:13:00,13.0,9.0,-100.00,ENE,70,1.0,6.0,82,0.00,,,0.01,13.000000,,2013-02-27 02:13:00,
2013-02-26 19:22:00,13.0,9.0,-100.00,ENE,70,1.0,6.0,82,0.00,,,0.01,13.000000,,2013-02-27 02:22:00,
2013-02-26 19:31:00,13.0,9.0,-100.00,ENE,70,1.0,6.0,82,0.00,,,0.01,13.000000,,2013-02-27 02:31:00,
2013-02-26 19:40:00,10.0,6.0,-100.00,West,268,3.0,5.0,82,0.00,,,0.01,0.000000,,2013-02-27 02:40:00,
2013-02-26 20:01:00,10.0,6.0,-100.00,West,268,3.0,5.0,82,0.00,,,0.01,0.000000,,2013-02-27 03:01:00,
2013-02-26 20:11:00,10.0,6.0,-100.00,West,268,3.0,5.0,82,0.00,,,0.01,0.000000,,2013-02-27 03:11:00,
2013-02-26 20:21:00,10.0,6.0,-100.00,West,268,3.0,5.0,82,0.00,,,0.01,0.000000,,2013-02-27 03:21:00,
2013-02-26 20:31:00,10.0,6.0,-100.00,West,268,3.0,5.0,82,0.00,,,0.01,0.000000,,2013-02-27 03:31:00,
2013-02-26 20:40:00,11.0,1.0,-100.00,West,264,4.0,10.0,64,0.00,,,0.01,0.000000,,2013-02-27 03:40:00,
2013-02-26 21:01:00,11.0,1.0,-100.00,West,264,4.0,10.0,64,0.00,,,0.01,0.000000,,2013-02-27 04:01:00,
2013-02-26 21:11:00,11.0,1.0,-100.00,West,264,4.0,10.0,64,0.00,,,0.01,0.000000,,2013-02-27 04:11:00,
2013-02-26 21:21:00,11.0,1.0,-100.00,West,264,4.0,10.0,64,0.00,,,0.01,0.000000,,2013-02-27 04:21:00,
2013-02-26 21:31:00,11.0,1.0,-100.00,West,264,4.0,10.0,64,0.00,,,0.01,0.000000,,2013-02-27 04:31:00,
2013-02-26 21:40:00,13.0,0.0,-100.00,WSW,255,7.0,14.0,55,0.00,,,0.01,0.000000,,2013-02-27 04:40:00,
2013-02-26 22:01:00,13.0,0.0,-100.00,WSW,255,7.0,14.0,55,0.00,,,0.01,0.000000,,2013-02-27 05:01:00,
2013-02-26 22:11:00,13.0,0.0,-100.00,WSW,255,7.0,14.0,55,0.00,,,0.01,0.000000,,2013-02-27 05:11:00,
2013-02-26 22:22:00,13.0,0.0,-100.00,WSW,255,7.0,14.0,55,0.00,,,0.01,0.000000,,2013-02-27 05:22:00,
2013-02-26 22:32:00,13.0,0.0,-100.00,WSW,255,7.0,14.0,55,0.00,,,0.01,0.000000,,2013-02-27 05:32:00,
2013-02-26 22:40:00,12.0,1.0,-100.00,West,265,7.0,15.0,60,0.00,,,0.01,0.000000,,2013-02-27 05:40:00,
2013-02-26 23:02:00,12.0,1.0,-100.00,West,265,7.0,15.0,60,0.00,,,0.01,0.000000,,2013-02-27 06:02:00,
2013-02-26 23:11:00,12.0,1.0,-100.00,West,265,7.0,15.0,60,0.00,,,0.01,0.000000,,2013-02-27 06:11:00,
2013-02-26 23:21:00,12.0,1.0,-100.00,West,265,7.0,15.0,60,0.00,,,0.01,0.000000,,2013-02-27 06:21:00,
2013-02-26 23:32:00,12.0,1.0,-100.00,West,265,7.0,15.0,60,0.00,,,0.01,0.000000,,2013-02-27 06:32:00,
2013-02-26 23:40:00,12.0,0.0,-100.00,West,267,8.0,15.0,58,0.00,,,0.01,0.000000,,2013-02-27 06:40:00,